Location: Mauries
(43.6188°N, 0.3322°W)
Time: 19:15:49
(UTC+00:00)

USA 234 - Pass Details

Date: 14 January 2026
Orbit: 1102 x 1106 km, 123.0° (Epoch: 4 January)

Event Time Altitude Azimuth Distance (km) Brightness Sun altitude
Rises 05:55:18 0° 51° (NE) 3,932 6.7 -17.1°
Reaches altitude 10° 05:57:52 10° 56° (ENE) 2,970 6.1 -16.7°
Maximum altitude 06:04:16 54° 133° (SE) 1,326 4.0 -15.6°
Drops below altitude 10° 06:10:38 10° 210° (SSW) 2,955 5.4 -14.5°
Sets 06:13:11 0° 214° (SW) 3,909 6.0 -14.0°
